Location: Passau
(48.5830°N, 13.4830°E)
Time: 06:14:29
(UTC+02:00)

Vanguard 1 - Pass Details

Date: 02 August 2021
Orbit: 652 x 3831 km, 34.3° (Epoch: 16 September)

Event Time Altitude Azimuth Distance (km) Brightness Sun altitude
Rises 10:56:02 0° 207° (SSW) 2,976 12.6 48.6°
Reaches altitude 10° 10:59:48 10° 173° (S) 2,233 12.5 49.1°
Maximum altitude 11:01:32 12° 152° (SSE) 2,242 12.8 49.3°
Drops below altitude 10° 11:03:26 10° 132° (SE) 2,519 13.1 49.5°
Sets 11:08:34 0° 102° (ESE) 4,020 13.7 50.2°
